GFSFLT1_con_mlcape_009.txt.gz
CAPE
14 0 0 0 1 55 110 308 463 611 502 369 1259 909 705 657 540 546 586 439 487 606 488 477 341 176 294 107 185 200 29 75
9 0 0 6 6 4 80 234 725 1025 558 360 646 902 689 592 720 911 696 517 619 654 431 386 411 274 238 52 23 64 59 24
0 0 0 0 3 3 28 329 964 1379 1276 507 749 747 558 718 608 620 685 573 654 598 626 581 413 275 334 111 43 56 41 10
0 0 0 0 0 7 33 382 963 1519 1478 1251 1162 1046 629 629 454 324 624 812 684 593 617 711 563 544 400 340 48 43 63 32
0 0 0 0 0 3 157 549 996 1584 1795 1592 1194 864 679 556 428 331 574 844 788 788 657 982 758 353 478 230 281 125 125 70
0 0 0 0 6 36 261 422 1086 1699 1852 1719 1234 804 751 331 298 460 856 907 855 815 860 997 832 807 681 637 189 177 222 34
0 0 0 0 0 119 368 695 880 1811 2076 1693 1374 1028 606 334 348 540 522 715 770 850 1053 858 818 755 675 434 260 314 203 63
0 0 0 0 25 273 671 765 1088 1911 1877 1893 1209 662 561 339 489 473 495 743 756 834 1020 932 750 695 431 274 370 295 188 133
0 0 0 0 115 314 756 1018 1002 1708 1794 1442 876 571 566 447 461 489 736 833 743 829 1014 784 588 587 511 394 309 99 164 257
0 0 0 239 294 598 739 680 1227 1687 1661 1206 666 502 427 450 391 589 812 749 750 666 860 623 606 533 299 203 219 145 117 269
0 0 0 362 414 579 576 696 1168 1617 1162 785 466 401 456 531 343 492 624 652 582 657 553 493 524 409 325 311 289 235 244 145
0 0 395 434 487 602 760 1063 1364 961 539 473 639 477 232 236 464 214 334 394 337 299 485 471 500 390 470 473 294 229 200 249
0 0 479 448 514 682 1078 1132 643 495 508 497 345 193 264 231 85 318 569 634 414 236 416 384 331 549 625 593 385 268 284 311
0 397 437 442 534 869 868 620 601 434 385 423 366 350 199 82 173 226 461 377 302 226 184 253 320 549 553 394 372 316 534 529
202 358 374 461 608 655 604 571 504 380 340 309 442 450 411 335 310 250 244 270 213 133 110 206 439 663 492 352 357 370 593 687
262 332 379 469 526 468 391 451 364 269 257 309 299 361 184 86 121 35 161 126 35 67 168 297 506 484 442 496 439 382 441 516
342 357 385 358 372 319 361 348 264 214 175 243 292 326 103 346 238 203 124 22 53 45 101 272 340 281 315 509 628 517 596 629
364 333 318 303 242 278 322 250 210 96 213 172 219 151 159 230 164 73 10 23 19 10 58 72 148 172 222 460 707 716 579 534
319 293 329 263 247 294 237 107 45 142 133 109 111 162 73 174 117 19 19 15 9 12 32 44 48 90 349 514 589 455 299 417
282 294 279 262 296 259 57 13 0 57 66 129 98 168 203 198 103 6 16 9 6 23 27 40 36 122 279 454 254 190 332 440

GFSFLT1_con_mlcape_015.txt.gz
CAPE
0 0 0 0 0 21 484 351 361 379 287 280 184 98 274 570 321 300 283 147 178 344 295 444 384 379 125 87 50 7 22 90
0 0 0 0 0 0 345 473 561 563 401 274 316 196 210 238 285 350 330 341 583 487 423 435 392 279 137 70 180 130 39 206
0 0 0 0 0 0 17 571 760 758 470 544 639 568 574 523 413 456 486 510 623 421 258 351 450 349 292 242 226 170 183 207
0 0 0 0 0 0 3 328 780 900 655 653 708 748 822 735 857 746 665 576 571 430 568 759 579 423 364 253 257 148 29 0
0 0 0 0 10 0 2 290 542 740 762 639 839 972 982 983 868 902 878 768 698 555 706 645 690 647 521 377 251 273 117 5
0 0 1 11 1 0 0 306 492 665 866 954 882 1081 1097 1031 833 960 900 804 619 641 648 575 680 805 721 477 199 118 46 22
0 0 0 11 0 0 26 280 435 723 838 1177 1248 1120 993 816 649 586 744 586 605 678 649 594 603 862 740 510 421 329 88 33
0 0 0 0 0 0 27 171 536 984 1402 1231 1407 1341 1024 719 571 424 485 590 645 686 713 781 831 846 642 451 347 291 293 119
0 0 0 0 0 0 0 241 841 1433 1690 1580 1253 1315 1070 804 527 510 580 603 724 833 716 652 838 635 445 443 454 332 164 72
0 0 0 0 0 26 266 649 1128 1675 1706 1730 1436 1308 930 671 611 423 552 568 563 621 672 528 577 449 365 338 305 214 153 57
0 0 0 0 32 395 955 1365 1544 1798 1900 1774 1550 1168 795 567 480 404 424 499 594 547 418 416 390 285 159 191 242 207 84 39
0 0 0 0 447 919 1247 1757 1878 2006 1957 1709 1436 1031 743 568 506 540 548 574 320 283 270 263 227 165 199 212 257 201 170 61
0 0 0 293 776 955 1099 1744 1972 1908 1726 1427 1085 826 555 422 352 336 374 254 275 221 192 153 67 126 154 144 170 162 114 87
0 59 501 743 907 955 1217 1595 1672 1616 1385 811 438 400 358 304 160 137 200 243 177 57 9 1 3 9 79 244 93 50 55 97
209 363 676 941 1102 1264 1306 1371 1299 922 590 471 382 404 314 159 102 126 122 140 107 32 0 0 0 135 319 195 39 67 146 67
519 683 978 1257 1354 1336 1153 926 792 493 462 386 295 179 140 68 27 141 100 53 8 0 0 0 86 234 283 260 194 122 154 134
609 797 1169 1238 1131 967 746 591 505 332 468 419 219 120 140 211 20 0 0 0 0 0 0 5 74 198 117 104 36 43 138 104
668 947 1088 958 851 732 580 510 398 359 366 298 262 294 162 47 19 14 0 0 3 0 0 4 16 76 74 58 8 97 119 78
732 905 870 812 768 643 541 438 392 425 322 184 144 129 83 5 7 0 0 0 0 2 0 9 13 16 23 29 41 67 122 147
723 713 707 707 635 579 431 388 291 323 281 260 114 101 69 11 0 3 0 0 0 0 5 15 39 56 20 11 39 83 233 87

GFSFLT1_con_mlcape_021.txt.gz
CAPE
0 0 0 0 1 86 149 128 26 0 0 0 22 24 21 84 66 71 254 180 166 236 72 113 446 721 716 632 423 364 115 0
0 0 0 0 0 1 104 206 152 23 0 0 0 33 21 43 89 81 127 119 72 80 56 25 344 521 605 521 342 191 62 48
0 0 0 0 0 0 8 137 196 154 23 0 7 51 3 57 154 176 170 76 20 46 47 62 265 382 458 401 246 119 87 101
0 0 0 0 0 0 0 31 152 282 181 27 29 102 53 97 253 271 241 117 27 40 37 180 288 292 325 312 290 200 170 189
0 0 0 0 0 0 0 0 56 229 317 266 180 138 156 194 273 368 287 180 64 49 34 283 347 286 320 303 238 210 253 159
0 0 0 0 0 0 0 0 7 139 333 448 425 383 326 269 335 379 316 231 84 87 132 413 472 387 447 383 294 339 344 247
0 0 0 0 0 0 0 0 0 81 418 525 478 551 541 458 404 409 343 237 184 171 260 524 435 554 495 424 371 372 443 300
0 0 0 0 0 0 0 0 0 193 500 494 472 603 668 602 560 536 442 363 300 362 339 477 420 507 495 484 545 477 382 142
0 0 0 0 0 0 0 0 10 253 389 449 567 678 723 713 725 754 738 657 704 596 550 521 453 486 501 535 545 397 180 36
0 0 0 0 0 0 0 0 3 81 354 558 652 729 646 657 752 849 877 890 741 650 653 474 451 502 574 455 241 81 23 0
0 0 0 0 0 0 0 0 4 84 394 592 609 562 520 672 788 915 926 845 766 720 388 487 498 455 370 130 1 0 0 0
0 0 0 0 0 0 0 0 12 306 549 679 762 769 846 658 830 679 571 565 653 486 478 395 327 191 38 0 0 0 0 0
0 0 0 0 0 0 0 29 326 636 854 833 808 702 517 439 426 330 243 274 464 431 303 169 21 0 0 0 0 0 0 2
0 0 0 0 43 213 616 678 833 1086 1084 876 810 667 529 401 271 263 241 202 182 130 30 0 0 0 0 0 0 0 2 2
0 0 42 289 616 978 1165 1242 1233 1230 1106 899 787 613 537 460 283 236 182 143 31 0 0 0 0 0 0 0 0 1 1 3
3 184 470 1034 1233 1329 1322 1273 1256 1146 1015 788 580 465 438 368 279 201 194 98 1 0 0 0 0 0 0 6 7 19 9 15
225 508 839 1012 1068 1154 1140 1046 861 758 640 525 375 276 276 234 120 33 0 0 0 0 0 0 0 0 1 28 39 31 30 30
562 671 719 697 805 802 798 562 381 183 77 59 57 43 21 10 8 4 0 0 0 0 0 0 0 0 12 20 20 0 4 22
651 677 662 685 561 576 350 119 22 1 3 8 7 0 0 0 0 0 0 0 0 0 0 0 0 6 7 10 4 2 0 13
702 769 724 622 410 230 125 63 37 0 0 2 0 0 0 0 0 0 0 0 0 0 0 0 8 5 4 11 18 36 18 22

GFSFLT1_con_mlcape_024.txt.gz
CAPE
0 0 0 0 4 61 79 65 30 7 1 0 3 23 8 83 65 73 130 81 82 162 63 152 143 398 625 811 706 479 222 82
0 0 0 0 0 0 83 123 104 52 25 1 1 11 14 32 57 98 60 60 34 82 17 20 62 282 522 596 456 383 197 101
0 0 0 0 0 0 0 26 55 53 40 3 0 0 7 15 67 122 108 86 0 30 20 6 17 127 389 516 466 299 163 68
0 0 0 0 0 0 0 0 2 71 50 22 5 0 23 35 46 119 177 120 2 0 0 13 4 66 320 381 347 241 145 78
0 0 0 0 0 0 0 0 0 12 19 31 16 2 31 40 73 180 121 148 6 0 0 0 5 64 238 205 204 168 175 124
0 0 0 0 0 0 0 0 0 0 10 72 48 10 53 69 101 211 223 209 43 0 0 0 0 63 273 209 220 255 219 256
0 0 0 0 0 0 0 0 0 0 7 127 184 103 109 133 203 287 333 265 132 31 4 0 4 212 250 241 282 257 298 324
0 0 0 0 0 0 0 0 0 0 1 147 256 269 290 222 243 352 351 333 232 143 52 58 78 402 322 320 348 261 323 339
0 0 0 0 0 0 0 0 0 0 0 51 212 314 405 446 415 390 419 370 284 169 147 75 290 401 417 369 341 395 273 5
0 0 0 0 0 0 0 0 0 0 10 153 316 391 393 473 526 580 563 475 297 226 132 170 375 357 380 352 324 233 39 0
0 0 0 0 0 0 0 0 0 0 97 266 304 348 332 480 645 724 686 534 429 392 375 378 390 359 386 323 216 59 0 0
0 0 0 0 0 0 0 0 0 0 120 293 349 319 330 523 681 741 726 587 559 469 446 467 367 331 362 182 1 0 0 0
0 0 0 0 0 0 0 0 0 0 120 280 386 470 402 454 626 728 700 555 584 531 456 296 365 241 54 0 0 0 0 0
0 0 0 0 1 10 10 0 0 89 313 399 469 533 456 612 692 762 426 290 348 326 320 291 97 0 0 0 0 0 0 0
0 0 0 34 207 335 340 339 337 472 529 504 498 551 521 573 535 352 337 230 276 289 139 9 0 0 0 0 0 0 0 0
0 0 86 491 752 740 676 705 742 697 502 400 292 320 341 251 300 270 224 193 135 2 4 0 0 0 0 0 0 0 0 0
0 142 727 951 920 868 843 860 734 527 374 295 246 255 300 206 69 53 42 5 0 0 0 0 0 0 0 0 0 14 13 4
30 537 910 792 816 724 628 603 616 429 338 308 275 225 154 62 40 45 2 0 0 0 0 0 0 0 0 0 8 10 13 1
341 626 608 611 628 566 454 411 321 281 262 117 65 32 23 8 2 0 0 0 0 0 0 0 0 0 0 0 1 5 7 0
535 555 565 640 594 306 182 67 16 0 0 0 0 0 0 4 0 0 0 0 0 0 0 0 0 0 0 0 4 22 2 0